Yamazaki, Japan

3:28 PM JST on September 26, 2017 (GMT +0900)
Yamazaki

Weather History for 47759 - April, 2014

Change the Weather History Date:

Sunday, April 20, 2014

  Actual Average Record
Temperature  
Mean Temperature 52 °F -  
Max Temperature 60 °F 73 °F - ()
Min Temperature 45 °F 53 °F - ()
Degree Days  
Heating Degree Days 12    
Growing Degree Days 2 (Base 50)    
Moisture  
Dew Point 42 °F    
Average Humidity 60    
Maximum Humidity 72    
Minimum Humidity 46    
Precipitation  
Precipitation 0.00 in 0.20 in - ()
Sea Level Pressure  
Sea Level Pressure 30.14 in    
Wind  
Wind Speed 4 mph ()    
Max Wind Speed 9 mph    
Max Gust Speed -    
Visibility 13.7 miles    
Events Rain    
T = Trace of Precipitation, MM = Missing Value Source: Averaged Metar Reports

Daily Weather History Graph

Daily Weather History Graph

Search for Another Location

Airport or City:

Trip Planner

Search our weather history database for the weather conditions in past years. The results will help you decide how hot, cold, wet, or windy it might be!

Date:

Astronomy

Apr. 20, 2014 Rise Set
Actual Time 5:19 AM JST 6:33 PM JST
Civil Twilight 4:53 AM JST 6:59 PM JST
Nautical Twilight 4:21 AM JST 7:30 PM JST
Astronomical Twilight 3:49 AM JST 8:03 PM JST
Moon 11:28 PM JST (4/20) 9:05 AM JST (4/20)
Length of Visible Light 14h 06m
Length of Day
13h 13m
Waning Gibbous, 74% of the Moon is Illuminated
Apr 20
Waning Gibbous
Apr 22
Last Quarter
Apr 29
New
May 7
First Quarter
May 15
Full

Hourly Weather History & Observations

Time (JST) Temp. Dew Point Humidity Pressure Visibility Wind Dir Wind Speed Gust Speed Precip Events Conditions
12:00 AM 47 °F 38 °F 61% 30.17 in - WNW 3.5 mph - -  
1:00 AM 47 °F 38 °F 60% 30.18 in - North 3.5 mph - -  
2:00 AM 47 °F 36 °F 56% 30.17 in - NE 3.5 mph - -  
3:00 AM 46 °F 36 °F 58% 30.15 in 12 mi NNE 2.3 mph - -   Scattered Clouds
4:00 AM 46 °F 36 °F 59% 30.16 in - WNW 2.3 mph - -  
5:00 AM 46 °F 36 °F 58% 30.15 in - ENE 3.5 mph - -  
6:00 AM 46 °F 37 °F 61% 30.16 in - NNW 2.3 mph - -  
7:00 AM 47 °F 36 °F 56% 30.16 in - NNW 2.3 mph - -  
8:00 AM 51 °F 37 °F 48% 30.15 in - WNW 3.5 mph - -  
9:00 AM 55 °F 40 °F 46% 30.16 in 19 mi ENE 5.8 mph - -   Overcast
10:00 AM 55 °F 42 °F 51% 30.17 in - East 4.6 mph - -  
11:00 AM 57 °F 44 °F 50% 30.17 in - NE 6.9 mph - -  
12:00 PM 59 °F 45 °F 48% 30.14 in - ESE 5.8 mph - -  
1:00 PM 58 °F 45 °F 52% 30.13 in - ENE 6.9 mph - -  
2:00 PM 58 °F 46 °F 54% 30.12 in - ENE 8.1 mph - -  
3:00 PM 57 °F 49 °F 65% 30.10 in 12 mi ENE 8.1 mph - - Rain Light Rain Showers
4:00 PM 56 °F 49 °F 69% 30.11 in - ENE 8.1 mph - -  
5:00 PM 56 °F 47 °F 65% 30.12 in - ENE 9.2 mph - -  
6:00 PM 55 °F 47 °F 68% 30.12 in - East 6.9 mph - -  
7:00 PM 54 °F 47 °F 71% 30.12 in - ENE 8.1 mph - -  
8:00 PM 54 °F 47 °F 72% 30.12 in - ENE 4.6 mph - -  
9:00 PM 54 °F 47 °F 70% 30.13 in 12 mi ENE 3.5 mph - - Rain Light Rain Showers
10:00 PM 54 °F 47 °F 70% 30.11 in - East 6.9 mph - -  
11:00 PM 55 °F 47 °F 67% 30.11 in - ENE 6.9 mph - -